When you browse on this site, cookies collect data to enhance your experience and personalize the content and advertising you see.
Visit our Privacy Policy to learn more. By continuing to use the site, you agree to this use of cookies and data.

Météo par heure à Halych

Ce jour, 12 Août, Mercredi

Heure Température Précipitation Vent Pression Humidité
00:00 +17°C° 0 mm 2 m/s 733 mmHg 91%
01:00 +17°C° 0 mm 2 m/s 733 mmHg 92%
02:00 +17°C° 0 mm 2 m/s 733 mmHg 94%
03:00 +16°C° 0 mm 2 m/s 733 mmHg 95%
04:00 +16°C° 0 mm 2 m/s 734 mmHg 96%
05:00 +15°C° 0 mm 2 m/s 734 mmHg 96%
06:00 +16°C° 0 mm 2 m/s 734 mmHg 94%
07:00 +17°C° 0 mm 2 m/s 734 mmHg 91%
08:00 +18°C° 0 mm 3 m/s 734 mmHg 88%
09:00 +19°C° 0 mm 3 m/s 734 mmHg 82%
10:00 +20°C° 0 mm 3 m/s 735 mmHg 76%
11:00 +22°C° 0 mm 4 m/s 735 mmHg 69%
12:00 +22°C° 0 mm 3 m/s 735 mmHg 67%
13:00 +22°C° 0 mm 3 m/s 735 mmHg 64%
14:00 +22°C° 0 mm 3 m/s 735 mmHg 62%
15:00 +22°C° 0 mm 3 m/s 735 mmHg 63%
16:00 +22°C° 0 mm 3 m/s 735 mmHg 64%
17:00 +21°C° 0 mm 3 m/s 735 mmHg 65%
18:00 +20°C° 0 mm 3 m/s 735 mmHg 69%
19:00 +18°C° 0 mm 2 m/s 735 mmHg 73%
20:00 +17°C° 0 mm 2 m/s 735 mmHg 77%
21:00 +16°C° 0 mm 2 m/s 735 mmHg 79%
22:00 +15°C° 0 mm 2 m/s 735 mmHg 81%
23:00 +15°C° 0 mm 1 m/s 735 mmHg 82%

Demain, 13 Août, Jeudi

Heure Température Précipitation Vent Pression Humidité
00:00 +14°C° 0 mm 1 m/s 735 mmHg 84%
01:00 +14°C° 0 mm 1 m/s 735 mmHg 85%
02:00 +13°C° 0 mm 1 m/s 735 mmHg 86%
03:00 +13°C° 0 mm 1 m/s 735 mmHg 87%
04:00 +13°C° 0 mm 1 m/s 735 mmHg 88%
05:00 +12°C° 0 mm 1 m/s 735 mmHg 89%
06:00 +14°C° 0 mm 1 m/s 735 mmHg 84%
07:00 +15°C° 0 mm 1 m/s 735 mmHg 79%
08:00 +18°C° 0 mm 1 m/s 735 mmHg 74%
09:00 +19°C° 0 mm 1 m/s 735 mmHg 70%
10:00 +20°C° 0 mm 1 m/s 735 mmHg 65%
11:00 +21°C° 0 mm 1 m/s 735 mmHg 60%
12:00 +22°C° 0 mm 1 m/s 734 mmHg 58%
13:00 +23°C° 0 mm 1 m/s 734 mmHg 55%
14:00 +23°C° 0 mm 1 m/s 734 mmHg 52%
15:00 +24°C° 0 mm 1 m/s 734 mmHg 53%
16:00 +24°C° 0 mm 1 m/s 733 mmHg 54%
17:00 +24°C° 0 mm 1 m/s 733 mmHg 54%
18:00 +22°C° 0 mm 1 m/s 733 mmHg 60%
19:00 +20°C° 0 mm 1 m/s 733 mmHg 66%
20:00 +17°C° 0 mm 2 m/s 733 mmHg 72%
21:00 +17°C° 0 mm 2 m/s 733 mmHg 73%
22:00 +16°C° 0 mm 2 m/s 733 mmHg 74%
23:00 +15°C° 0 mm 2 m/s 733 mmHg 75%

Après-demain, 14 Août, Vendredi

Heure Température Précipitation Vent Pression Humidité
00:00 +15°C° 0 mm 2 m/s 733 mmHg 76%
01:00 +14°C° 0 mm 2 m/s 733 mmHg 77%
02:00 +14°C° 0 mm 2 m/s 733 mmHg 79%
03:00 +13°C° 0 mm 2 m/s 733 mmHg 80%
04:00 +13°C° 0 mm 2 m/s 733 mmHg 81%
05:00 +13°C° 0 mm 2 m/s 732 mmHg 83%
06:00 +13°C° 0 mm 3 m/s 732 mmHg 80%
07:00 +16°C° 0 mm 3 m/s 733 mmHg 77%
08:00 +17°C° 0 mm 3 m/s 733 mmHg 73%
09:00 +19°C° 0 mm 4 m/s 733 mmHg 70%
10:00 +20°C° 0 mm 4 m/s 733 mmHg 66%
11:00 +22°C° 0 mm 4 m/s 733 mmHg 62%
12:00 +22°C° 0 mm 4 m/s 733 mmHg 61%
13:00 +23°C° 0 mm 4 m/s 732 mmHg 60%
14:00 +25°C° 0 mm 5 m/s 732 mmHg 59%
15:00 +23°C° 0 mm 5 m/s 732 mmHg 60%
16:00 +23°C° 0 mm 4 m/s 732 mmHg 61%
17:00 +23°C° 0 mm 4 m/s 732 mmHg 62%
18:00 +21°C° 0 mm 4 m/s 732 mmHg 67%
19:00 +20°C° 0 mm 4 m/s 732 mmHg 71%
20:00 +18°C° 0 mm 4 m/s 732 mmHg 75%
21:00 +17°C° 0 mm 5 m/s 732 mmHg 74%
22:00 +16°C° 0 mm 5 m/s 732 mmHg 73%
23:00 +16°C° 0 mm 6 m/s 732 mmHg 73%

15 Août, Samedi

Heure Température Précipitation Vent Pression Humidité
00:00 +15°C° 0 mm 6 m/s 732 mmHg 70%
01:00 +15°C° 0 mm 6 m/s 732 mmHg 68%
02:00 +15°C° 0 mm 6 m/s 732 mmHg 66%
03:00 +15°C° 0 mm 6 m/s 732 mmHg 65%
04:00 +15°C° 0 mm 6 m/s 731 mmHg 65%
05:00 +15°C° 0 mm 5 m/s 731 mmHg 64%
06:00 +15°C° 0 mm 6 m/s 731 mmHg 66%
07:00 +15°C° 0 mm 6 m/s 732 mmHg 68%
08:00 +15°C° 0 mm 6 m/s 732 mmHg 70%
09:00 +15°C° 0.2 mm 6 m/s 732 mmHg 73%
10:00 +15°C° 0.2 mm 5 m/s 732 mmHg 76%
11:00 +15°C° 0.2 mm 5 m/s 732 mmHg 79%
12:00 +15°C° 0.2 mm 5 m/s 732 mmHg 80%
13:00 +15°C° 0.2 mm 5 m/s 732 mmHg 82%
14:00 +15°C° 0.2 mm 5 m/s 732 mmHg 83%
15:00 +15°C° 0.1 mm 4 m/s 732 mmHg 84%
16:00 +15°C° 0.1 mm 4 m/s 732 mmHg 86%
17:00 +14°C° 0.1 mm 4 m/s 732 mmHg 87%
18:00 +14°C° 0.1 mm 4 m/s 732 mmHg 89%
19:00 +14°C° 0.1 mm 3 m/s 732 mmHg 90%
20:00 +13°C° 0.1 mm 3 m/s 732 mmHg 92%
21:00 +13°C° 0 mm 3 m/s 733 mmHg 93%
22:00 +13°C° 0 mm 4 m/s 733 mmHg 94%
23:00 +13°C° 0 mm 4 m/s 733 mmHg 95%

16 Août, Dimanche

Heure Température Précipitation Vent Pression Humidité
00:00 +13°C° 0 mm 4 m/s 733 mmHg 94%
01:00 +13°C° 0 mm 4 m/s 733 mmHg 93%
02:00 +13°C° 0 mm 4 m/s 733 mmHg 93%
03:00 +13°C° 0 mm 4 m/s 733 mmHg 93%
04:00 +12°C° 0 mm 4 m/s 733 mmHg 93%
05:00 +12°C° 0 mm 5 m/s 733 mmHg 93%
06:00 +13°C° 0 mm 5 m/s 733 mmHg 89%
07:00 +14°C° 0 mm 5 m/s 733 mmHg 85%
08:00 +15°C° 0 mm 6 m/s 734 mmHg 81%
09:00 +16°C° 0 mm 6 m/s 734 mmHg 75%
10:00 +19°C° 0 mm 6 m/s 734 mmHg 69%
11:00 +20°C° 0 mm 6 m/s 735 mmHg 63%
12:00 +21°C° 0 mm 6 m/s 735 mmHg 61%
13:00 +21°C° 0 mm 6 m/s 735 mmHg 60%
14:00 +22°C° 0 mm 6 m/s 735 mmHg 58%
15:00 +22°C° 0 mm 5 m/s 735 mmHg 59%
16:00 +21°C° 0 mm 5 m/s 734 mmHg 61%
17:00 +21°C° 0 mm 5 m/s 734 mmHg 62%
18:00 +20°C° 0 mm 4 m/s 734 mmHg 69%
19:00 +18°C° 0 mm 3 m/s 734 mmHg 75%
20:00 +16°C° 0 mm 2 m/s 734 mmHg 82%
21:00 +15°C° 0 mm 2 m/s 734 mmHg 83%
22:00 +15°C° 0 mm 2 m/s 734 mmHg 83%
23:00 +13°C° 0 mm 3 m/s 735 mmHg 84%

17 Août, Lundi

Heure Température Précipitation Vent Pression Humidité
00:00 +13°C° 0 mm 3 m/s 735 mmHg 81%
01:00 +12°C° 0 mm 3 m/s 735 mmHg 78%
02:00 +12°C° 0 mm 3 m/s 735 mmHg 75%
03:00 +12°C° 0 mm 3 m/s 735 mmHg 75%
04:00 +11°C° 0 mm 3 m/s 735 mmHg 74%
05:00 +11°C° 0 mm 3 m/s 735 mmHg 74%
06:00 +13°C° 0 mm 4 m/s 735 mmHg 72%
07:00 +14°C° 0 mm 4 m/s 735 mmHg 70%
08:00 +17°C° 0 mm 4 m/s 735 mmHg 69%
09:00 +18°C° 0 mm 4 m/s 735 mmHg 63%
10:00 +20°C° 0 mm 5 m/s 735 mmHg 58%
11:00 +22°C° 0 mm 5 m/s 736 mmHg 53%
12:00 +23°C° 0 mm 5 m/s 735 mmHg 52%
13:00 +23°C° 0 mm 5 m/s 735 mmHg 51%
14:00 +25°C° 0 mm 5 m/s 735 mmHg 50%
15:00 +23°C° 0 mm 5 m/s 734 mmHg 53%
16:00 +23°C° 0 mm 4 m/s 734 mmHg 55%
17:00 +23°C° 0 mm 4 m/s 734 mmHg 58%
18:00 +21°C° 0 mm 4 m/s 734 mmHg 62%
19:00 +20°C° 0 mm 3 m/s 733 mmHg 65%
20:00 +18°C° 0 mm 3 m/s 733 mmHg 69%
21:00 +17°C° 0 mm 3 m/s 733 mmHg 68%
22:00 +17°C° 0 mm 3 m/s 733 mmHg 67%
23:00 +16°C° 0 mm 3 m/s 733 mmHg 65%
Voir plus